Regional Weather Roundup
Issued by NWS

Home | Current Version | Previous Version | Text Only | Print | Product List | Glossary Off
Versions: 1 2 3 4 5 6 7 8 9 10 11 12 13 14 15 16 17 18 19 20 21 22 23 24 25 26 27 28 29 30 31 32 33 34 35 36 37 38 39 40 41 42 43 44 45 46 47 48 49 50

000
ASUS43 KMKX 211121
RWRWI

WISCONSIN REGIONAL WEATHER ROUNDUP
NATIONAL WEATHER SERVICE MILWAUKEE/SULLIVAN WI
600 AM CDT TUE OCT 21 2014

NOTE: "FAIR" INDICATES FEW OR NO CLOUDS BELOW 12,000 FEET WITH NO
SIGNIFICANT WEATHER AND/OR OBSTRUCTIONS TO VISIBILITY.

WIZ001-002-006>008-014>016-023>028-211200-
NORTHWEST WISCONSIN

CITY           SKY/WX    TMP DP  RH WIND       PRES   REMARKS
SUPERIOR ARPT  CLOUDY    44  38  80 E5        30.21R
ASHLAND        CLOUDY    43  37  79 NE7       30.22R
HAYWARD        CLOUDY    42  35  76 E7        30.19R
SIREN          CLOUDY    38  37  97 E3        30.19R
CUMBERLAND     CLOUDY    43  34  70 E7        30.17R
RICE LAKE      CLOUDY    43  35  71 E5        30.19R
CHETEK         CLOUDY    44  36  73 NE5       30.18R
LADYSMITH      CLOUDY    42  35  75 NE6       30.20R
EAU CLAIRE     CLEAR     36  34  92 NE7       30.17R WCI  30
MENOMONIE      CLEAR     35  34  96 CALM      30.18R
NEW RICHMOND   CLEAR     31  31 100 CALM      30.17R FOG
OSCEOLA        CLOUDY    30  30 100 CALM      30.20R FOG
$$

WIZ003>005-009-010-017-018-211200-
NORTH CENTRAL WISCONSIN

CITY           SKY/WX    TMP DP  RH WIND       PRES   REMARKS
MANITOWISH WTR CLOUDY    37  35  92 N6        30.18R WCI  32
ARBOR VITAE    CLOUDY    39  36  87 NE5       30.17R
WOODRUFF       CLOUDY    39  36  87 NE5       30.17R
RHINELANDER    CLOUDY    38  34  85 VRB5      30.17R WCI  34
EAGLE RIVER    CLOUDY    38  35  89 NE8       30.17R WCI  32
LAND O LAKES   CLOUDY    37  35  92 NE6       30.19R WCI  33
PHILLIPS       CLOUDY    39  34  81 NE5       30.17R
TOMAHAWK       CLOUDY    40  33  78 CALM      30.17R
MEDFORD        CLOUDY    39  34  81 N9        30.16R WCI  33
MERRILL        CLOUDY    40  34  77 NE8       30.17R
$$

WIZ029-030-035-036-043>047-211200-
CENTRAL WISCONSIN

CITY           SKY/WX    TMP DP  RH WIND       PRES   REMARKS
WAUSAU         CLOUDY    42  34  73 N8        30.15R
MOSINEE        CLOUDY    39  36  87 N10       30.16R WCI  32
MARSHFIELD     MOCLDY    40  34  79 N3        30.16R
STEVENS POINT  CLOUDY    37  33  89 N5        30.16R WCI  33
WAUPACA        CLOUDY    43  38  82 NW3       30.16R
WAUTOMA        CLOUDY    40  36  86 CALM      30.16R
WISC RAPIDS    CLEAR     38  34  85 NE7       30.17R WCI  33
CAMP DOUGLAS   CLEAR     40  40  99 NE3       30.16R
$$

WIZ011>013-019>022-031-037>040-048>050-211200-
NORTHEAST WISCONSIN

CITY           SKY/WX    TMP DP  RH WIND       PRES   REMARKS
ANTIGO         CLOUDY    39  35  87 N8        30.16R WCI  33
SHAWANO        PTCLDY    44  37  77 N10       30.16R
OCONTO         CLOUDY    42  38  88 N6        30.14R
STURGEON BAY   CLOUDY    45  37  76 N20G25    30.13R
GREEN BAY      CLOUDY    43  37  79 N13       30.15R
MANITOWOC      CLOUDY    45  40  82 N13       30.12R
APPLETON       CLOUDY    43  36  75 N10       30.14R
CLINTONVILLE   CLOUDY    43  36  75 N6        30.15R
OSHKOSH        CLOUDY    44  37  76 N12       30.13R
$$

WIZ032>034-041-042-053>061-211200-
SOUTHWEST WISCONSIN

CITY           SKY/WX    TMP DP  RH WIND       PRES   REMARKS
LA CROSSE      CLEAR     37  35  92 N6        30.16R WCI  32
SPARTA         CLEAR     28  28 100 CALM      30.17R
VIROQUA        CLEAR     37  37 100 CALM      30.14R
BOSCOBEL       FOG       33  31  92 CALM      30.16R VSB 3/4
PRAIRIE DU CHI CLEAR     35  34  94 CALM      30.15R
PLATTEVILLE    CLEAR     37  36  93 CALM      30.14R
$$

WIZ056-057-062-063-064-067-068-211200-
SOUTH CENTRAL WISCONSIN

CITY           SKY/WX    TMP DP  RH WIND       PRES   REMARKS
REEDSBURG      CLEAR     43  38  82 N7        30.14R
BARABOO/DELLS  CLEAR     42  36  80 CALM      30.14R
LONE ROCK      CLEAR     39  34  82 W5        30.14R
MINERAL POINT  CLEAR     37  36  93 N5        30.13R WCI  34
MADISON        PTCLDY    44  39  82 N9        30.13R
MIDDLETON      PTCLDY    46  38  76 N8        30.13R
WATERTOWN      PTCLDY    42  37  84 N9        30.11R
MONROE         CLOUDY    43  39  87 N6        30.11R
JANESVILLE     CLOUDY    48  37  66 N8        30.10R
$$

WIZ051-052-058>065-066-070>072-211200-
SOUTHEAST WISCONSIN

CITY           SKY/WX    TMP DP  RH WIND       PRES   REMARKS
MILWAUKEE      PTCLDY    45  38  76 N8        30.10R
WAUKESHA       MOCLDY    43  37  81 NW7       30.10R
MILWAUKEE/TIMM CLOUDY    43  36  75 N8        30.11R
RACINE         CLOUDY    46  39  76 N10       30.10R
BURLINGTON     CLOUDY    44  37  77 N6        30.09R
KENOSHA        CLOUDY    45  40  82 N7        30.09R
FOND DU LAC    CLOUDY    44  37  76 N8        30.13R
SHEBOYGAN      CLOUDY    45  39  79 N10       30.11R
WEST BEND      CLOUDY    43  36  75 N7        30.11R
JUNEAU         PTCLDY    41  37  83 N9        30.13R
$$

LSZ147-162-211200-
LAKE SUPERIOR

STATION/POSITION TIME  TEMP    WIND        PRES    WAVE
                       AIR SEA DIR/SP/G            HT/PER
                 (UTC) (F)     (DEG/KT/KT) (MB)    (FT/S)
W MID LAKE BUOY  1050   41 46   60/ 10/ 12 1024.0R   3/ 5
DEVILS ISLAND    1100   43      70/ 13/ 16 1024.3R
PORT WING        1000   44     100/  2/  6 1022.7
SAXON HARBOR     1000   45      60/ 16/ 19 1022.4R
$$

LMZ867-665-643>646-211200-
LAKE MICHIGAN

STATION/POSITION TIME  TEMP    WIND        PRES    WAVE
                       AIR SEA DIR/SP/G            HT/PER
                 (UTC) (F)     (DEG/KT/KT) (MB)    (FT/S)
CHAMBERS ISLAND  1000   45     330/ 17/ 22 1019.6R
N MID LAKE BUOY  1050   46 51  360/ 19/ 23 1019.2R   4/ 5
NORTHPORT PIER   1004   46     360/ 21/ 25 1019.3R
SISTER BAY       0927           10/ 17/ 20   N/A
KEWAUNEE LAKESHO 1100   45     350/  7/ 13 1018.9R
SHEBOYGAN LAKESH 1100   46 50  340/ 14/ 18 1020.0R
PORT WASHINGTON  1000   46     350/  5/  9 1019.3
ATWATER BUOY     1100   48     350/ 17/ 21 1019.9R
MILWAUKEE LAKESH 1100   46     340/ 11/ 16   N/A
S MID LAKE BUOY  1050   49 54  340/ 21/ 25 1017.5R   6/ 7
KENOSHA   LAKESH 1100   47     330/ 11/ 13 1018.6R
$$

TC  - TEMPERATURE IN CELSIUS
VSB - VISIBILITY IN STATUTE MILES
WCI - WIND CHILL INDEX
HX  - HEAT INDEX



USA.gov is the U.S. government's official web portal to all federal, state and local government web resources and services.